Bergen/Flesland

Airport
ICAO code: 
ENBR
Summary
ICAO Region: 
EUR
Territory: 
Location: 
Bergen,
Elevation: 
170 ft
Coordinates: 
Aerial View: 
60° 17' 36.239" N, 5° 13' 5.304" E
Airport BS: 
Non Avian Wildlife Hazards to Aircraft
Airport WX: 
Low Level Turbulence
Metar
Observation
ENBR 262220Z 15020G30KT 3500 -RADZ BR SCT004 BKN006 04/04 Q0997 RMK WIND 1200FT 16023G33KT
Station
Bergen / Flesland
Date/Time
2022-01-26 22:20:00
Wind direction
150°
Wind speed
20 kts
Lowest cloud amount
scattered clouds
Temperature
4°C
Dew point
4°C
Humidity
100%
QNH
997 hPa
Weather condition
n/a

Description

International airport 8 nm south west of Bergen.

Climatology

Temperate Marine climate/Oceanic climate (Köppen climate classification Cfb). Moderately cool summer and comparatively warm winter with a temperature range of only 14°C. Prevailing south-westerly winds from the Atlantic Ocean. Despite its latitude, Bergen is one of the warmest cities in Norway because of the influence of the Atlantic Gulf Stream current.

Runways

Designator Length Width Surface Rops
17/35 2990 45 ASP Yes/Yes
Airport map: 
Aerial View: 

Accidents and Serious Incidents at or in the vicinity of ENBR

SKYbrary Partners:

Safety knowledge contributed by: